Regional Weather Roundup
Issued by NWS Midland/Odessa, TX

Skip options and go directly to product.
Home | Oldest Version | Previous Version | Current Version | All | Text Only | Save Text | Print | Product List | Glossary On

Skip product version selection by date and time.   
996
ASUS44 KMAF 270810
RWRMAF
MIDLAND AREA WEATHER ROUNDUP
NATIONAL WEATHER SERVICE MIDLAND TX
300 AM CDT TUE SEP 27 2016

...IN SOUTHWEST TEXAS AND SOUTHEAST NEW MEXICO...

CITY           SKY/WX    TMP DP  RH WIND       PRES   REMARKS
ALPINE         CLOUDY    49  48  98 E5        30.37F
ANDREWS        MOCLDY    58  53  83 CALM      30.28F
ARTESIA        CLEAR     55  52  88 S7        30.30F
BIG SPRING     CLOUDY    60  52  73 CALM      30.28S
CARLSBAD       CLOUDY    56  53  90 S7        30.29F
DRYDEN           N/A     60  51  72 N10       30.21F
FORT STOCKTON  LGT RAIN  53  51  93 W8        30.29F
GUAD PASS      CLOUDY    50  41  71 E16       30.35S
HOBBS          CLOUDY    55  55 100 W3        30.30F
MARFA          CLOUDY   N/A N/A N/A N6        30.33S
MIDLAND AIRPK  DRIZZLE   60  50  70 S5        30.28S
MIDLAND INTL   LGT RAIN  57  48  72 E6        30.27F
ODESSA         LGT RAIN  58  53  84 SW3       30.29F
PECOS          CLOUDY    56  51  82 CALM        N/A
PRESIDIO       CLOUDY    58  49  72 N7        30.25
SEMINOLE       CLOUDY    59  50  73 CALM      30.30F
SNYDER           N/A     58  48  69 CALM      30.25F
WINK           CLOUDY    54  52  93 W6        30.29F
$$
...OTHER STATIONS IN TEXAS...

CITY           SKY/WX    TMP DP  RH WIND       PRES   REMARKS
ABILENE        CLOUDY    60  53  77 NW5       30.21S
AMARILLO       CLOUDY    51  38  60 SW9       30.28F
AUSTIN         CLOUDY    68  64  87 N7        30.10S
BROWNSVILLE    PTCLDY    77  74  90 N9        29.95S
CORPUS CHRISTI CLOUDY    72  69  90 N15       30.02S
DALLAS FTW     CLOUDY    68  60  75 N7        30.12S
DEL RIO        CLOUDY    66  59  78 NW12      30.14F
EL PASO        MOCLDY    56  45  66 CALM      30.28F
HOUSTON INT    CLOUDY    74  71  91 N8        30.02F
LUBBOCK        CLOUDY    54  42  64 NW3       30.27F
SAN ANGELO     CLOUDY    64  52  64 NW8       30.21S
SAN ANTONIO    CLOUDY    67  61  81 N7        30.08F
WACO           CLOUDY    67  61  81 N7        30.10F
WICHITA FALLS  NOT AVBL
$$
...OTHER LOCATIONS IN NEW MEXICO...

CITY           SKY/WX    TMP DP  RH WIND       PRES   REMARKS
ALAMAGORDO     LGT RAIN  54  52  94 N3          N/A
ALBUQUERQUE    CLOUDY    57  34  41 N5        30.34F
CANNON AFB     CLEAR     55  42  60 W6        30.32F
CLOVIS         CLOUDY    52  41  66 SW6       30.32S
HOLLOMAN AFB   LGT RAIN  54  54 100 NE5       30.29F
ROSWELL        PTCLDY    53  48  83 SE3       30.29F
RUIDOSO        CLOUDY    50  39  66 S5        30.43S
SANTA FE       CLEAR     47  33  58 CALM      30.39S
TRUTH OR CONSE CLOUDY    53  50  89 CALM      30.30F
TUCUMCARI      CLEAR     51  38  60 SW9       30.29F
$$

USA.gov is the U.S. government's official web portal to all federal, state and local government web resources and services.